Home   Weather   Lublin   Past weeks

Flag for Poland Past Weather in Lublin, Poland — Yesterday and Last 2 Weeks

Now
37 °F

Fog.


Feels Like: 37 °F
Forecast: 58 / 69 °F
Wind: No wind

Location: Lublin Radawiec

Current Time: Sep 28, 2016 at 7:12:14 AM

Latest Report: Sep 28, 2016 at 6:00 AM


Visibility: 5 mi

Pressure: 30.36 "Hg

Humidity: 98%

Dew Point: 36 °F

Location of LublinLocation

Past Weather in Lublin — Graph

°F

Lublin Temperature Yesterday

Maximum temperature yesterday: 58 °F (at 2:00 PM)
Minimum temperature yesterday: 42 °F (at 4:00 AM)
Average temperature yesterday: 48 °F

High & Low Weather Summary for the Past Weeks

 TemperatureHumidityPressure
High79 °F (Sep 13, 2:00 PM)99% (Sep 21, 7:00 AM)30.41 "Hg (Sep 21, 7:00 AM)
Low37 °F (Sep 28, 2:00 AM)39% (Sep 16, 3:00 PM)29.89 "Hg (Sep 17, 3:00 PM)
Average54 °F74%30.12 "Hg
* Reported Sep 13 5:00 AM — Sep 28 5:00 AM, Lublin, Weather by CustomWeather, © 2016

Note: Actual official high and low records may vary slightly from our data, if they occured in-between our weather recording intervals... More about our weather records

Advertising

Lublin Weather History for the Previous 24 Hours

Scroll right to see more
 ConditionsComfort  
Time TempWeatherWind HumidityBarometerVisibility
5:00 AM
Wed, Sep 28
38 °FFog.1 mph98%30.37 "Hg3 mi
4:00 AM38 °FFog.1 mph97%30.39 "Hg4 mi
3:00 AM39 °FFog.1 mph98%30.39 "Hg4 mi
2:00 AM37 °FFog.1 mph96%30.40 "Hg4 mi
1:00 AM38 °FFog.No wind93%30.41 "Hg4 mi
12:00 AM41 °FClear.1 mph93%30.40 "Hg6 mi
11:00 PM
Tue, Sep 27
44 °FClear.1 mph88%30.40 "Hg7 mi
10:00 PM46 °FClear.1 mph85%30.40 "Hg6 mi
9:00 PM45 °FClear.1 mph89%30.40 "Hg6 mi
8:00 PM44 °FClear.1 mph91%30.40 "Hg6 mi
7:00 PM47 °FPassing clouds.1 mph84%30.39 "Hg6 mi
6:00 PM53 °FPassing clouds.1 mph67%30.36 "Hg11 mi
5:00 PM55 °FScattered clouds.1 mph63%30.35 "Hg11 mi
4:00 PM56 °FPartly sunny.2 mph59%30.36 "Hg16 mi
3:00 PM57 °FPartly sunny.1 mph58%30.36 "Hg16 mi
2:00 PM58 °FScattered clouds.3 mph55%30.35 "Hg16 mi
1:00 PM57 °FScattered clouds.2 mph57%30.36 "Hg12 mi
12:00 PM55 °FPassing clouds.3 mph57%30.36 "Hg16 mi
11:00 AM54 °FPassing clouds.3 mph59%30.37 "Hg17 mi
10:00 AM51 °FPassing clouds.3 mph66%30.36 "Hg17 mi
9:00 AM48 °FScattered clouds.3 mph71%30.36 "Hg16 mi
8:00 AM44 °FPartly sunny.2 mph84%30.36 "Hg22 mi
7:00 AM42 °FPartly sunny.2 mph86%30.35 "Hg25 mi
Weather by CustomWeather, © 2016

See weather overviewHow to use our weather pages